User: anonymous   Login
Location: Barcelona
(41.3830°N, 2.1830°E)
Time: 07:00:58
(UTC+01:00)
Language:

SPROUT - Orbit

View from above orbital plane
View from above orbital plane
View from above satellite
View from above satellite

Ground track
Ground track

The orbit data is extracted from the following two-line orbital elements,

1 39770U 14029E   19078.60424442  .00000770  00000-0  91579-4 0  9992
2 39770  97.8794 182.5399 0010132  32.0775 328.1057 14.87217493261292
Epoch (UTC): 19 March 2019 14:30:06
Eccentricity: 0.0010132
inclination: 97.8794°
perigee height: 599 km
apogee height: 614 km
right ascension of ascending node: 182.5399°
argument of perigee: 32.0775°
revolutions per day: 14.87217493
mean anomaly at epoch: 328.1057°
orbit number at epoch: 26129

The dashed part of the orbit path shows where the satellite is in the earth's shadow,  

DLR